Weather History for KMOX - June, 2013

Change the Weather History Date:

Monday, June 10, 2013

  Actual Average Record
Temperature  
Mean Temperature 62 °F -  
Max Temperature 75 °F 71 °F 89 °F (2007)
Min Temperature 48 °F 52 °F 46 °F (2006)
Degree Days  
Heating Degree Days 4    
Growing Degree Days 12 (Base 50)    
Moisture  
Dew Point 57 °F    
Average Humidity 83    
Maximum Humidity 100    
Minimum Humidity 57    
Precipitation  
Precipitation 0.01 in - - ()
Sea Level Pressure  
Sea Level Pressure 29.83 in    
Wind  
Wind Speed 3 mph (SE)    
Max Wind Speed 13 mph    
Max Gust Speed -    
Visibility 8 miles    
Events Fog    
Averages and records for this station are not official NWS values.
T = Trace of Precipitation, MM = Missing Value Source: NWS Daily Summary

Daily Weather History Graph

Daily Weather History Graph

Search for Another Location

Airport or City:

Trip Planner

Search our weather history database for the weather conditions in past years. The results will help you decide how hot, cold, wet, or windy it might be!

Date:

Astronomy

Jun. 10, 2013 Rise Set
Actual Time 5:34 AM CDT 9:12 PM CDT
Civil Twilight 4:57 AM CDT 9:50 PM CDT
Nautical Twilight 4:06 AM CDT 10:40 PM CDT
Astronomical Twilight 2:59 AM CDT 11:48 PM CDT
Moon 7:28 AM CDT (6/10) 10:34 PM CDT (6/10)
Length of Visible Light 16h 53m
Length of Day
15h 37m
Waxing Crescent, 4% of the Moon is Illuminated
Jun 10
Waxing Crescent
Jun 16
First Quarter
Jun 23
Full
Jun 29
Last Quarter
Jul 8
New

Hourly Weather History & Observations

Time (CDT) Temp. Dew Point Humidity Pressure Visibility Wind Dir Wind Speed Gust Speed Precip Events Conditions
12:11 AM 55.4 °F 55.4 °F 100% 29.85 in 0.5 mi Calm Calm - N/A Fog Fog
12:31 AM 53.6 °F 53.6 °F 100% 29.85 in 0.2 mi Calm Calm - N/A Fog Fog
12:51 AM 53.6 °F 53.6 °F 100% 29.85 in 0.2 mi Calm Calm - N/A Fog Fog
1:11 AM 55.4 °F 53.6 °F 94% 29.85 in 1.5 mi West 3.5 mph - N/A   Overcast
1:31 AM 55.4 °F 55.4 °F 100% 29.84 in 2.5 mi West 3.5 mph - N/A   Overcast
1:51 AM 55.4 °F 55.4 °F 100% 29.83 in 3.0 mi WSW 3.5 mph - N/A   Overcast
2:11 AM 55.4 °F 55.4 °F 100% 29.83 in 4.0 mi Calm Calm - N/A   Overcast
2:31 AM 55.4 °F 55.4 °F 100% 29.83 in 7.0 mi Calm Calm - N/A   Overcast
2:51 AM 57.2 °F 55.4 °F 94% 29.83 in 7.0 mi West 4.6 mph - N/A   Overcast
3:11 AM 57.2 °F 55.4 °F 94% 29.83 in 10.0 mi Calm Calm - N/A   Overcast
3:31 AM 57.2 °F 55.4 °F 94% 29.83 in 10.0 mi Calm Calm - N/A   Overcast
3:51 AM 57.2 °F 55.4 °F 94% 29.82 in 10.0 mi Calm Calm - N/A   Overcast
4:11 AM 55.4 °F 53.6 °F 94% 29.80 in 7.0 mi Calm Calm - N/A   Mostly Cloudy
4:31 AM 53.6 °F 53.6 °F 100% 29.80 in 7.0 mi Calm Calm - N/A   Scattered Clouds
4:51 AM 53.6 °F 53.6 °F 100% 29.82 in 3.0 mi Calm Calm - N/A   Clear
5:11 AM 51.8 °F 51.8 °F 100% 29.83 in 2.5 mi NNW 3.5 mph - N/A   Clear
5:31 AM 51.8 °F 50.0 °F 94% 29.85 in 0.8 mi Calm Calm - N/A   Mostly Cloudy
5:51 AM 48.2 °F 48.2 °F 100% 29.83 in 0.2 mi East 4.6 mph - N/A Fog Fog
6:11 AM 51.8 °F 51.8 °F 100% 29.86 in 0.2 mi Calm Calm - N/A Fog Fog
6:31 AM 51.8 °F 51.8 °F 100% 29.86 in 1.8 mi Calm Calm - N/A   Overcast
6:51 AM 55.4 °F 53.6 °F 94% 29.85 in 4.0 mi NNW 6.9 mph - N/A   Overcast
7:11 AM 55.4 °F 55.4 °F 100% 29.86 in 5.0 mi NNW 3.5 mph - N/A   Overcast
7:31 AM 55.4 °F 55.4 °F 100% 29.86 in 5.0 mi NNW 3.5 mph - N/A   Overcast
7:51 AM 55.4 °F 55.4 °F 100% 29.87 in 7.0 mi WNW 4.6 mph - N/A   Overcast
8:11 AM 57.2 °F 55.4 °F 94% 29.86 in 7.0 mi NNW 3.5 mph - N/A   Overcast
8:31 AM 57.2 °F 55.4 °F 94% 29.88 in 7.0 mi WSW 5.8 mph - N/A   Overcast
8:51 AM 57.2 °F 55.4 °F 94% 29.88 in 7.0 mi Calm Calm - N/A   Overcast
9:11 AM 57.2 °F 55.4 °F 94% 29.86 in 7.0 mi Calm Calm - N/A   Overcast
9:31 AM 57.2 °F 55.4 °F 94% 29.87 in 7.0 mi Calm Calm - 0.01 in   Overcast
9:51 AM 59.0 °F 57.2 °F 94% 29.87 in 10.0 mi Calm Calm - 0.01 in   Overcast
10:11 AM 59.0 °F 57.2 °F 94% 29.86 in 10.0 mi Calm Calm - N/A   Overcast
10:31 AM 59.0 °F 57.2 °F 94% 29.86 in 10.0 mi Calm Calm - N/A   Overcast
10:51 AM 62.6 °F 57.2 °F 82% 29.85 in 10.0 mi SE 5.8 mph - N/A   Overcast
11:11 AM 62.6 °F 57.2 °F 82% 29.83 in 10.0 mi SE 6.9 mph - N/A   Mostly Cloudy
11:31 AM 64.4 °F 57.2 °F 77% 29.84 in 4.0 mi ESE 5.8 mph - N/A   Haze
11:51 AM 64.4 °F 57.2 °F 77% 29.84 in 7.0 mi ESE 4.6 mph - N/A   Overcast
12:11 PM 64.4 °F 57.2 °F 77% 29.85 in 10.0 mi ESE 3.5 mph - N/A   Mostly Cloudy
12:31 PM 64.4 °F 59.0 °F 83% 29.84 in 10.0 mi SSE 4.6 mph - N/A   Mostly Cloudy
12:51 PM 66.2 °F 59.0 °F 78% 29.84 in 10.0 mi SE 4.6 mph - N/A   Scattered Clouds
1:11 PM 68.0 °F 59.0 °F 73% 29.84 in 10.0 mi South 5.8 mph - N/A   Scattered Clouds
1:31 PM 68.0 °F 57.2 °F 68% 29.84 in 10.0 mi SE 4.6 mph - N/A   Scattered Clouds
1:51 PM 69.8 °F 60.8 °F 73% 29.83 in 10.0 mi SSE 6.9 mph - N/A   Scattered Clouds
2:11 PM 69.8 °F 59.0 °F 68% 29.83 in 10.0 mi SE 6.9 mph - N/A   Clear
2:31 PM 71.6 °F 59.0 °F 64% 29.82 in 10.0 mi SSE 9.2 mph - N/A   Clear
2:51 PM 71.6 °F 60.8 °F 69% 29.82 in 10.0 mi SE 5.8 mph - N/A   Clear
3:11 PM 73.4 °F 59.0 °F 61% 29.82 in 10.0 mi South 8.1 mph - N/A   Clear
3:31 PM 73.4 °F 57.2 °F 57% 29.82 in 10.0 mi SSE 8.1 mph - N/A   Clear
3:51 PM 75.2 °F 59.0 °F 57% 29.82 in 10.0 mi SSE 8.1 mph - N/A   Clear
4:11 PM 73.4 °F 59.0 °F 61% 29.82 in 10.0 mi South 9.2 mph - N/A   Clear
4:31 PM 75.2 °F 60.8 °F 61% 29.82 in 10.0 mi SSE 8.1 mph - N/A   Clear
4:51 PM 75.2 °F 59.0 °F 57% 29.82 in 10.0 mi SSE 9.2 mph - N/A   Clear
5:11 PM 75.2 °F 60.8 °F 61% 29.81 in 10.0 mi SE 9.2 mph - N/A   Clear
5:31 PM 75.2 °F 60.8 °F 61% 29.80 in 10.0 mi South 11.5 mph - N/A   Clear
5:51 PM 75.2 °F 59.0 °F 57% 29.80 in 10.0 mi SE 11.5 mph - N/A   Clear
6:11 PM 75.2 °F 59.0 °F 57% 29.80 in 10.0 mi SSE 9.2 mph - N/A   Clear
6:31 PM 75.2 °F 60.8 °F 61% 29.79 in 10.0 mi SSE 11.5 mph - N/A   Clear
6:51 PM 75.2 °F 60.8 °F 61% 29.79 in 10.0 mi SE 12.7 mph - N/A   Clear
7:11 PM 75.2 °F 59.0 °F 57% 29.80 in 10.0 mi SSE 10.4 mph - N/A   Clear
7:31 PM 73.4 °F 60.8 °F 65% 29.79 in 10.0 mi SSE 10.4 mph - N/A   Clear
7:51 PM 73.4 °F 60.8 °F 65% 29.79 in 10.0 mi SE 9.2 mph - N/A   Clear
8:11 PM 73.4 °F 60.8 °F 65% 29.79 in 10.0 mi SE 8.1 mph - N/A   Clear
8:25 PM 73.4 °F 60.8 °F 65% 29.79 in 10.0 mi North - - N/A   Clear
8:51 PM 69.8 °F 60.8 °F 73% 29.79 in 10.0 mi SSE 5.8 mph - N/A   Clear
9:11 PM 68.0 °F 60.8 °F 78% 29.80 in 10.0 mi SSE 3.5 mph - N/A   Clear
9:31 PM 66.2 °F 60.8 °F 83% 29.81 in 10.0 mi Calm Calm - N/A   Clear
9:51 PM 64.4 °F 60.8 °F 88% 29.81 in 10.0 mi ESE 3.5 mph - N/A   Clear
10:11 PM 64.4 °F 60.8 °F 88% 29.82 in 10.0 mi East 4.6 mph - N/A   Clear
10:31 PM 64.4 °F 60.8 °F 88% 29.81 in 10.0 mi East 6.9 mph - N/A   Clear
10:51 PM 64.4 °F 60.8 °F 88% 29.81 in 10.0 mi East 6.9 mph - N/A   Clear
11:11 PM 62.6 °F 59.0 °F 88% 29.81 in 10.0 mi SE 5.8 mph - N/A   Clear
11:31 PM 62.6 °F 59.0 °F 88% 29.81 in 10.0 mi SE 6.9 mph - N/A   Clear
11:51 PM 62.6 °F 57.2 °F 82% 29.82 in 10.0 mi ESE 6.9 mph - N/A   Clear